Theta_e
307 307 307 307 307 307 303 304 305 309 308 317 313 313 315 317 317 317 318 322 326 328 327 328 328 328 327 324 324 326 326 330 330 330 323 323 324 325 324 321 323 319 319 321
307 307 307 307 307 306 304 304 304 308 312 313 310 312 315 317 318 318 319 323 323 324 328 330 328 328 326 318 324 327 327 328 327 326 325 323 323 323 322 322 320 324 326 324
307 307 307 307 306 306 303 302 305 303 313 311 311 313 315 316 317 319 321 322 322 324 327 326 329 327 317 317 320 321 326 324 324 326 324 322 321 322 322 323 322 323 323 321
307 307 307 307 306 305 303 301 304 306 313 309 312 312 315 317 319 318 320 323 322 324 326 326 327 321 316 316 315 316 321 322 322 323 323 325 323 321 319 320 320 322 322 320
307 307 307 307 307 304 303 302 302 304 310 311 312 312 315 316 318 319 322 323 321 323 323 324 323 320 316 316 314 319 319 319 319 321 323 324 326 325 324 322 319 319 322 323
306 307 307 307 307 304 304 303 304 308 309 309 312 313 314 315 316 318 319 321 320 321 317 314 316 314 315 315 315 318 318 317 319 324 323 323 322 323 323 323 317 319 320 319
305 306 306 307 307 305 304 303 303 306 310 311 312 313 312 316 315 316 318 319 319 310 308 308 307 308 311 314 315 315 315 314 315 320 318 324 320 317 320 319 314 313 316 312
306 306 305 307 307 305 305 304 305 306 307 311 312 313 312 315 315 316 315 313 310 308 308 309 311 309 310 308 310 315 313 312 316 319 319 317 315 306 309 314 314 313 313 311
306 305 305 307 307 306 305 305 306 307 308 310 312 313 312 313 313 305 305 308 307 305 306 309 314 314 315 313 313 312 314 314 317 316 317 315 312 306 306 306 308 308 310 307
306 306 306 307 307 306 305 305 306 306 305 305 309 313 314 312 309 306 304 306 304 304 308 313 315 315 313 313 314 313 314 312 316 314 316 313 308 304 304 308 307 304 301 300
306 306 307 307 307 306 305 303 305 305 302 298 300 305 306 307 309 308 301 305 302 304 312 312 311 313 312 311 311 314 315 315 315 314 314 316 303 302 304 302 300 300 299 299
306 307 307 307 307 306 305 300 302 302 298 297 297 298 300 304 308 301 303 306 304 305 308 307 308 310 309 310 312 309 312 312 312 312 311 305 300 301 302 300 300 299 298 299
306 306 306 306 306 306 305 299 300 299 296 297 298 298 298 304 304 303 303 300 303 305 305 304 305 309 307 310 310 307 308 309 308 307 306 304 301 301 301 300 298 299 299 299
306 306 306 306 306 306 304 300 300 300 298 301 299 298 299 302 302 303 302 301 303 303 302 302 305 306 304 307 306 305 304 308 306 305 304 304 302 299 298 298 298 299 299 298
304 304 304 304 304 304 302 301 301 301 301 301 301 300 301 302 302 302 303 303 303 302 302 303 306 303 302 303 304 303 301 303 306 304 303 302 301 300 299 299 300 299 297 296
303 304 304 304 304 302 301 296 299 300 300 298 301 297 300 301 301 302 303 303 302 302 301 302 302 300 303 304 302 301 302 301 302 302 302 300 301 299 299 299 299 298 296 295
300 298 299 300 300 300 298 300 299 299 298 298 300 300 297 301 301 302 302 302 302 301 301 301 299 299 302 302 300 301 301 301 301 300 300 300 299 298 299 299 298 297 295 295
294 296 296 297 297 296 295 298 299 299 300 299 300 300 300 300 300 301 301 300 300 299 299 299 297 297 299 300 298 297 298 299 299 298 299 298 298 298 298 296 295 294 294 294
296 296 296 295 295 294 296 297 298 298 299 299 300 301 301 299 299 299 299 299 299 298 299 298 299 298 299 299 299 298 297 297 297 297 297 297 297 297 297 296 295 294 293 294
296 297 296 295 295 297 296 299 299 299 300 300 300 297 299 299 298 299 298 299 299 300 300 296 298 298 299 299 298 297 297 297 296 295 296 296 296 296 297 296 294 294 293 294
297 299 296 295 296 294 297 299 300 300 302 299 299 298 299 299 298 299 299 299 298 297 298 298 299 298 299 299 298 297 295 296 296 296 296 296 295 295 296 295 295 294 295 294
296 296 297 297 297 299 299 299 299 300 301 300 299 299 300 300 300 300 299 300 298 301 298 296 299 299 300 299 298 297 295 295 295 296 295 295 297 296 295 294 294 294 295 295
297 297 295 297 295 294 297 298 301 300 300 300 300 300 299 298 298 297 298 295 295 298 294 298 296 300 299 298 298 297 296 296 296 296 296 297 297 297 296 294 295 295 294 294
296 293 290 293 293 300 301 300 300 299 300 300 299 298 297 296 296 297 293 298 298 294 291 294 297 299 298 298 298 297 297 296 296 297 297 295 294 293 295 295 295 295 294 294
296 296 294 296 298 297 297 297 298 298 298 297 297 296 296 295 295 297 297 294 294 294 292 294 297 299 299 298 298 297 296 293 293 291 290 289 289 289 288 291 292 292 293 293
295 297 296 297 296 297 298 298 298 296 295 296 296 296 293 295 296 295 295 296 293 293 295 296 298 298 298 298 298 295 293 292 291 290 290 289 288 288 290 291 291 291 290 290
296 295 295 296 296 297 298 297 296 296 296 296 297 293 298 297 297 298 298 294 296 296 297 297 298 298 295 293 293 292 292 292 290 289 289 287 289 290 290 284 290 289 289 288
Wind_Speed
57 56 54 52 49 47 40 6 6 24 38 13 14 19 25 16 17 14 9 6 21 16 20 19 21 21 18 13 28 28 26 12 6 14 4 7 17 16 9 5 5 4 4 4
54 55 54 53 52 52 31 4 4 13 37 12 13 13 18 7 17 12 12 5 7 12 2 3 27 18 15 10 24 18 21 5 4 4 9 5 8 13 9 5 4 6 7 4
54 55 55 54 54 54 27 3 6 3 13 9 19 21 15 13 8 6 10 4 0 4 5 2 5 15 7 5 4 5 20 6 7 8 4 7 7 11 14 13 5 6 7 6
53 54 55 55 56 55 24 3 4 4 8 13 18 28 17 26 9 7 12 3 8 5 5 6 5 1 3 7 6 3 4 6 11 7 5 2 4 8 11 13 7 10 13 12
50 53 54 55 58 56 13 5 3 3 6 20 22 25 19 27 22 15 18 13 12 6 5 6 7 4 2 2 6 4 6 2 4 3 5 1 9 13 9 11 15 9 9 17
47 50 54 55 59 55 4 4 3 1 3 15 19 19 28 26 20 13 14 20 14 12 6 9 6 9 7 5 3 3 4 4 3 1 5 7 9 18 18 13 12 11 16 7
50 51 53 55 59 55 23 9 4 2 3 14 20 25 25 22 31 11 15 12 5 6 16 9 8 12 12 11 9 5 4 4 3 3 5 7 6 10 22 19 14 8 6 10
47 50 53 55 57 56 18 18 4 4 1 11 23 21 29 18 18 20 3 3 8 14 6 4 4 3 3 4 4 4 4 5 3 4 6 7 5 3 6 12 11 14 5 10
46 50 51 54 56 57 18 22 16 3 1 6 17 20 19 15 7 4 2 4 13 6 3 3 5 5 5 5 4 6 7 8 6 4 5 9 2 9 5 6 7 5 7 12
44 46 49 52 52 55 25 9 15 3 3 2 3 14 14 8 6 5 3 6 3 2 4 3 3 4 7 8 11 7 5 3 9 4 3 6 4 8 8 8 5 3 12 13
42 46 47 48 47 50 30 9 10 4 1 3 3 4 6 3 9 7 6 5 0 2 3 4 3 3 6 4 7 7 9 8 4 3 3 11 10 5 10 5 4 13 13 13
39 41 41 42 44 50 33 5 12 14 5 2 1 1 6 1 7 8 10 2 6 5 4 2 3 3 2 5 6 5 4 6 6 7 4 3 5 6 7 8 11 7 10 11
35 37 39 39 40 44 25 12 18 8 3 2 2 2 8 6 9 20 6 1 4 3 3 3 2 3 3 6 5 4 5 7 4 4 4 4 6 6 7 10 9 9 10 9
25 29 30 32 35 40 27 13 21 16 4 1 0 4 2 8 15 13 11 14 6 6 3 2 2 3 4 3 3 5 5 14 8 3 3 7 9 11 11 9 10 11 9 9
19 20 23 27 32 37 25 18 19 21 5 2 3 3 7 13 18 22 22 15 13 4 3 2 2 2 3 2 2 2 5 7 8 4 6 5 10 10 12 12 11 11 11 7
16 15 19 24 30 29 18 2 7 16 18 3 3 1 1 5 16 13 15 10 5 3 3 2 2 4 3 3 4 3 10 8 9 5 10 7 14 15 12 13 12 9 10 8
26 28 27 29 28 23 2 3 17 19 16 3 3 3 2 10 5 3 5 4 2 3 2 1 3 2 3 1 3 6 6 11 10 6 8 7 8 8 13 12 12 16 13 11
31 34 31 29 29 18 8 16 20 15 5 3 3 3 3 2 2 3 3 3 1 2 3 2 4 2 2 2 5 5 7 8 8 9 7 7 14 13 11 14 12 10 7 6
26 22 18 11 9 2 5 14 9 9 3 3 2 4 4 1 0 3 3 3 2 1 2 2 3 2 2 5 4 4 5 6 8 7 11 12 12 10 12 13 11 9 7 7
11 4 3 3 3 16 9 3 1 1 1 3 2 3 3 5 3 2 3 2 2 2 3 2 2 2 3 5 4 6 7 8 8 6 8 9 8 8 10 11 8 8 7 6
6 0 3 12 19 3 1 1 2 1 3 3 1 8 9 3 6 3 2 2 3 3 3 4 2 2 5 6 6 7 8 8 7 7 7 10 10 7 7 8 8 7 10 8
1 3 4 8 3 2 4 2 2 3 2 3 7 9 3 3 3 3 1 2 2 2 3 3 1 3 6 9 8 8 9 8 9 9 9 9 9 8 8 7 6 7 11 12
5 4 4 3 3 4 4 1 3 3 1 4 4 4 3 2 3 2 3 3 2 3 3 3 4 4 6 7 7 9 9 9 9 8 7 10 8 13 9 5 4 3 3 4
3 3 5 2 3 3 3 5 4 2 7 10 6 3 3 1 3 2 4 2 3 2 2 4 3 5 7 7 6 9 9 10 9 9 9 9 9 6 9 7 5 4 5 9
3 4 3 3 0 1 1 4 8 9 8 5 4 3 3 2 3 1 4 3 2 4 5 3 3 7 8 7 6 10 10 9 9 8 10 9 9 8 7 9 8 7 7 8
3 4 4 2 3 4 6 9 9 5 4 4 3 3 3 0 3 3 4 6 4 4 3 3 5 8 8 9 10 10 9 11 10 9 10 11 10 7 4 2 3 3 3 5
3 2 2 3 3 2 3 4 3 3 3 2 3 3 2 3 2 2 2 3 3 3 2 2 6 10 10 10 11 10 10 9 7 10 10 7 7 7 7 4 7 5 4 5
Wind_Direction
192 194 194 193 188 188 173 171 201 181 187 192 177 193 198 198 197 236 225 237 204 214 196 205 214 209 195 200 203 206 200 216 227 227 211 172 202 213 198 159 256 213 149 269
188 190 190 188 186 180 163 181 192 201 177 189 184 187 212 205 193 202 193 237 207 217 215 235 215 205 224 357 184 194 183 202 170 186 186 210 198 202 206 135 121 195 188 253
187 187 187 186 186 174 162 148 169 257 188 190 195 179 194 211 234 200 184 219 99 131 187 213 286 221 38 35 123 51 185 150 192 190 202 167 174 201 216 209 191 181 194 149
182 184 186 183 185 172 163 155 199 254 179 176 193 189 172 192 170 224 192 240 214 161 150 222 216 1 81 56 347 40 117 140 186 217 72 44 164 209 232 232 197 192 202 180
182 183 184 181 180 169 170 142 157 225 163 174 187 188 194 187 196 171 193 211 205 174 147 192 209 137 96 140 27 43 3 55 82 357 356 49 287 273 269 277 247 236 199 209
185 181 181 180 177 167 145 148 154 293 246 177 179 188 195 201 186 191 203 194 173 186 116 95 74 60 65 77 97 101 73 105 79 301 44 35 289 233 238 245 252 223 231 206
183 185 184 181 179 178 171 173 122 153 218 191 190 193 201 187 200 175 195 178 120 118 131 90 51 48 40 56 25 60 93 83 66 105 91 227 253 187 206 221 231 252 217 129
180 181 183 184 181 181 175 170 150 145 201 194 210 201 192 180 190 202 110 66 123 162 65 89 89 37 53 7 334 154 107 103 148 170 203 317 259 181 171 188 240 225 167 141
177 181 181 182 182 183 176 170 190 122 112 213 198 195 180 186 157 100 53 75 136 72 96 124 156 173 143 180 159 226 167 187 190 162 192 211 269 184 154 78 264 233 178 137
175 177 181 177 183 184 177 158 184 140 147 190 238 190 176 155 114 111 156 138 85 25 131 139 155 168 160 163 163 159 172 175 203 166 219 284 215 117 110 159 239 104 109 110
172 173 177 181 183 182 177 138 149 119 96 7 36 354 132 131 158 150 162 102 332 82 144 146 172 149 193 135 160 167 165 166 180 156 202 252 153 105 164 171 49 98 95 102
168 172 175 180 186 185 183 108 145 91 67 34 32 320 9 201 172 119 172 89 146 162 125 153 125 165 146 150 178 155 199 188 165 188 214 256 153 124 122 117 112 98 102 104
170 177 183 188 191 186 174 122 140 99 78 354 36 355 353 84 131 144 121 254 135 141 124 127 147 161 168 168 199 122 203 160 146 140 224 145 122 101 105 116 106 101 98 99
169 176 181 184 185 184 180 153 164 136 98 179 101 332 2 118 132 120 107 122 125 106 91 109 148 144 204 206 179 156 180 162 157 182 172 111 144 137 129 113 113 106 94 97
163 164 175 177 181 173 169 150 167 180 134 146 106 75 36 105 113 113 123 123 125 128 111 117 147 168 138 191 82 225 163 163 175 197 186 126 153 143 132 126 122 120 118 109
161 164 179 175 170 156 135 80 137 142 140 131 150 325 88 123 123 123 127 128 113 101 112 133 202 172 146 140 204 208 167 158 145 161 156 146 149 156 155 144 139 136 129 134
107 104 116 131 143 149 140 172 147 138 111 107 112 100 13 124 94 99 114 101 131 113 148 146 156 145 100 180 183 193 157 149 148 146 132 134 136 137 122 123 120 121 125 131
89 94 95 109 115 103 71 98 120 120 86 135 111 89 91 144 113 105 146 134 95 1 169 100 107 352 145 193 259 77 115 128 141 130 108 128 126 128 131 124 121 123 132 146
90 84 83 75 49 64 124 126 118 91 157 106 138 146 128 132 171 120 40 113 57 279 77 105 109 179 214 206 190 153 125 136 130 114 127 119 129 137 140 135 139 146 170 181
121 52 70 50 322 132 131 127 101 120 61 40 104 91 121 139 160 97 110 90 150 118 230 105 100 209 221 195 168 142 118 136 126 122 126 128 131 138 148 157 155 165 177 189
208 339 68 140 159 139 114 114 110 206 76 78 57 120 117 84 104 115 112 163 172 117 210 121 181 254 205 185 161 142 131 135 143 138 137 146 150 153 147 151 160 170 176 186
190 137 134 138 166 159 102 172 271 92 92 102 129 115 73 59 65 82 16 98 51 117 124 86 198 255 171 177 159 140 140 137 137 133 139 138 147 147 149 152 147 164 190 198
77 53 49 42 324 30 108 92 69 88 103 131 129 115 135 59 66 60 89 89 196 99 71 183 222 191 141 153 150 148 142 137 136 136 131 128 136 142 141 136 129 162 176 199
83 72 16 90 355 46 319 100 99 120 117 117 109 80 103 113 70 142 91 200 101 87 100 234 216 167 145 139 135 135 135 130 134 134 127 121 124 128 133 162 193 212 216 252
60 46 48 65 296 296 35 86 92 103 110 99 80 46 76 42 80 120 96 43 168 183 207 209 185 124 111 114 122 126 120 109 96 91 93 92 87 84 76 58 47 34 8 345
41 30 49 29 49 354 79 100 107 117 115 92 84 102 82 72 138 96 184 145 191 218 165 175 112 108 94 86 88 92 97 102 107 108 111 111 105 108 109 49 5 333 307 298
52 4 71 83 62 61 84 112 140 135 100 124 105 92 147 141 109 131 150 172 177 136 98 93 102 106 108 105 98 97 99 97 97 95 86 90 99 102 95 70 76 69 62 46